SCP
0 0 -0 -0 0 0 0 0 -0 -0 0 0 0 0 0 0 0 0 0 0 0 0 0 0 0 0 0 0 0 0 0 0 0 0 0 0 0 0 0 0 0 0 0 0 -0
0 0 0 -0 0 0 0 0 0 0 0 0 0 0 0 0 0 0 0 0 0 0 0 0 0 0 0 0 0 0 0 0 0 0 0 0 0 0 0 0 0 0 0 -0 -0
0 0 0 0 0 0 0 0 0 0 0 0 0 0 0 0 0 0 0 0 0 0 0 0 0 0 0 0 0 0 0 0 0 0 0 0 0 0 0 0 0 0 0 -0 -0
0 0 0 0 0 0 0 0 0 0 0 0 0 0 0 0 0 0 0 0 0 0 0 0 0 0 0 0 0 0 0 0 0 0 0 0 0 0 0 0 0 0 -0 -0 -0
0 0 0 0 0 0 0 0 0 0 0 0 0 0 0 0 0 0 0 0 0 0 0 0 0 0 0 0 0 0 0 0 0 0 0 0 0 0 0 0 0 0 0 -0 -0
0 0 0 0 0 0 0 0 0 0 0 0 0 0 0 0 0 0 0 0 0 0 0 0 0 0 0 0 0 0 0 0 0 0 0 0 0 0 0 0 0 0 0 0 0
0 0 0 0 0 0 0 0 0 0 0 0 0 0 0 0 0 0 0 0 0 0 0 0 0 0 0 0 0 0 0 0 0 0 0 0 0 0 0 0 0 0 0 0 0
0 0 0 0 0 0 0 0 0 0 0 0 0 0 0 0 0 0 0 0 0 0 0 0 0 0 0 0 0 0 0 0 0 0 0 0 0 0 0 0 0 0 0 0 0
0 0 0 0 0 0 0 0 0 0 0 0 0 0 0 0 0 0 0 0 0 0 0 0 0 0 0 0 0 0 0 0 0 0 0 0 0 0 0 0 0 0 0 0 0
0 0 0 0 0 0 0 0 0 1 0 0 0 0 0 0 0 0 0 0 0 0 0 0 0 0 0 0 0 0 0 0 0 0 0 0 0 0 0 0 0 0 0 0 0
0 0 0 0 0 0 0 0 0 0 0 0 0 0 0 0 0 0 0 0 0 0 0 0 0 0 0 0 0 0 0 0 0 0 0 0 0 0 0 0 0 0 0 0 0
0 0 0 0 0 0 0 0 0 0 0 0 0 0 0 0 0 0 0 0 0 0 0 0 0 0 0 0 0 0 0 0 0 0 0 0 0 0 0 0 0 0 0 0 0
0 0 0 0 0 0 0 0 0 0 0 0 0 0 0 0 0 0 0 0 0 0 0 0 0 0 0 0 0 0 0 0 0 0 0 0 0 0 0 0 0 0 0 0 0
0 0 0 0 0 0 -0 0 0 0 0 0 0 0 0 0 0 0 0 0 0 0 0 0 0 0 0 0 0 0 0 0 0 0 0 0 0 0 0 0 0 0 0 0 0
0 0 0 0 0 0 0 0 0 0 0 0 0 0 0 0 0 0 0 0 0 0 0 0 0 0 0 0 0 0 0 0 0 0 0 0 0 -0 0 0 0 0 0 0 0
0 0 0 0 0 0 0 0 0 0 0 0 0 0 0 0 0 0 0 0 0 0 0 0 0 0 0 0 0 0 0 0 0 0 0 0 0 -0 0 0 0 0 0 0 0
0 0 0 0 -0 0 0 0 0 0 0 0 0 0 0 0 0 0 0 0 0 0 0 0 0 0 0 0 0 0 0 0 0 0 0 0 0 0 0 0 0 0 0 0 0
0 0 0 0 0 0 0 0 0 0 0 0 0 0 0 0 0 0 0 0 0 0 0 0 0 0 0 0 0 0 0 0 0 0 0 0 0 0 0 0 0 0 0 0 0
0 0 0 0 0 0 0 0 0 0 0 0 0 0 0 0 0 0 0 0 0 0 0 0 0 0 0 0 0 0 0 0 0 0 0 0 0 0 0 0 0 0 0 0 0
0 -0 0 0 0 0 0 0 0 0 0 0 0 0 0 0 0 0 0 0 0 0 0 0 0 0 0 0 0 0 0 0 0 0 0 0 0 0 0 -0 0 0 0 0 0
0 -0 -0 0 0 -0 0 0 0 0 0 0 0 0 0 0 0 0 0 0 0 0 0 0 0 0 0 0 0 0 0 0 0 0 0 0 0 0 -0 0 0 -0 -0 0 0
0 -0 -0 0 0 0 0 0 0 0 0 0 0 0 0 0 0 0 0 0 0 0 0 0 0 0 0 0 0 0 0 0 0 0 0 0 0 0 0 0 0 0 0 0 0
-0 -0 0 0 0 0 0 0 0 0 0 0 0 0 0 0 0 0 0 0 0 0 0 0 0 0 0 0 0 0 0 0 0 0 0 0 0 0 0 0 0 0 0 0 0
-0 0 0 0 0 0 0 0 0 0 0 0 0 0 0 0 0 0 0 0 0 0 0 0 0 0 0 0 0 0 0 0 0 0 0 0 0 0 0 0 0 0 0 0 0
0 0 0 0 0 0 0 0 0 0 0 0 0 0 0 0 0 0 0 0 0 0 0 0 0 0 0 0 0 0 0 0 0 0 0 0 0 0 0 0 0 0 0 0 0
0 0 0 0 0 0 0 0 0 0 0 0 0 0 0 0 0 0 0 0 0 0 0 0 0 0 0 0 0 0 0 0 0 0 0 0 0 0 0 0 0 0 0 0 0
0 0 0 0 0 0 0 0 0 0 0 0 0 0 0 0 0 0 0 0 0 0 0 0 0 0 0 0 0 0 0 0 0 0 0 0 0 0 0 0 0 0 0 0 0
Wind_Speed_500mb
49 51 53 67 80 60 63 54 56 55 60 60 65 68 76 69 56 59 58 52 53 50 31 23 19 18 18 12 12 10 9 6 7 10 6 22 11 19 15 27 16 25 12 16 53
51 52 51 61 76 60 65 54 52 61 50 63 58 75 63 57 52 62 74 57 43 34 46 32 22 21 12 11 8 8 8 18 10 9 8 22 18 33 14 23 10 26 20 25 59
55 51 44 60 86 76 62 57 50 62 54 66 67 51 69 58 38 54 63 53 41 52 42 47 34 15 5 12 8 8 9 10 4 8 9 22 14 26 24 6 28 46 35 44 65
45 48 46 50 66 70 69 61 52 63 53 57 57 65 45 59 20 22 55 53 49 45 40 24 26 29 8 8 11 9 11 6 1 7 6 17 28 17 34 16 38 36 43 52 67
36 44 48 45 49 66 76 60 57 59 62 61 50 59 65 44 32 15 48 52 46 55 55 52 59 17 12 8 11 5 6 7 4 8 15 19 20 14 44 17 18 37 49 53 63
44 39 51 52 49 58 56 64 62 66 65 69 65 63 56 25 37 34 43 57 56 62 59 58 40 45 15 8 10 12 9 3 1 7 8 8 2 10 32 25 23 39 52 57 62
52 49 47 47 48 53 68 68 65 68 67 68 58 65 62 47 20 36 34 56 66 66 61 58 27 36 22 8 16 6 5 8 6 7 7 8 1 13 13 25 33 43 50 59 63
55 52 53 46 42 60 71 65 68 69 68 59 53 62 14 39 27 30 24 53 51 64 46 50 28 31 10 17 11 9 6 3 3 7 5 15 16 3 16 32 36 46 51 57 62
50 53 47 53 43 59 60 43 67 70 63 61 59 34 18 21 35 39 18 47 47 54 47 40 30 15 13 12 6 8 8 8 5 7 6 6 13 2 23 34 38 47 49 55 58
46 51 48 50 41 47 55 37 62 63 68 61 44 19 23 37 56 37 39 34 45 48 36 31 14 8 6 7 13 9 8 6 12 10 5 9 16 7 17 30 40 48 54 58 62
41 48 47 45 46 54 54 42 79 28 96 36 56 10 43 33 51 49 40 59 45 36 12 13 10 22 16 14 11 13 11 9 4 5 5 12 17 18 7 25 34 44 55 60 64
41 48 41 47 50 59 54 31 86 32 27 45 63 17 51 66 37 53 48 31 15 10 12 8 18 11 14 10 10 9 10 7 2 3 6 3 21 17 17 17 49 59 56 66 64
43 45 43 37 52 61 43 63 88 64 16 10 64 26 66 61 40 58 68 20 9 12 10 16 12 18 16 10 14 7 14 9 7 4 3 3 13 13 13 33 38 50 59 57 62
36 41 44 41 34 56 53 52 89 67 6 18 23 20 44 46 10 51 59 46 9 13 12 11 6 19 10 11 10 10 8 10 11 9 8 3 12 13 12 19 19 54 53 67 67
38 36 46 45 32 43 57 63 84 48 13 28 19 40 47 51 57 23 30 18 17 15 13 13 15 13 8 14 12 11 13 14 7 7 2 1 6 14 7 15 16 42 67 69 72
40 34 42 46 51 51 64 66 66 17 13 16 17 18 30 13 20 30 28 15 14 9 8 6 5 14 18 6 13 16 14 14 10 6 11 15 12 13 14 15 12 32 68 75 76
33 35 45 49 75 71 51 66 12 25 14 14 12 27 53 18 14 43 33 18 15 18 13 6 4 1 9 14 6 9 14 3 1 2 13 1 8 31 12 14 18 33 63 66 73
31 35 49 67 68 60 61 17 19 18 18 13 25 39 23 34 20 27 30 16 11 10 12 22 13 16 6 14 15 11 16 11 13 8 7 3 15 12 15 31 44 45 39 35 34
34 39 51 63 68 63 32 23 17 36 19 30 39 31 13 14 20 22 31 40 17 21 17 16 12 5 3 7 19 12 13 13 12 5 7 11 13 20 16 20 33 55 49 45 35
33 34 56 47 62 62 18 25 8 25 20 44 18 16 24 31 31 38 42 35 24 28 4 15 11 3 9 11 3 14 19 7 4 5 8 8 9 11 7 23 21 19 49 51 47
31 15 24 59 72 33 10 20 10 22 49 26 19 18 21 32 23 40 57 14 45 36 11 13 10 6 11 13 15 7 8 5 9 10 9 2 11 16 24 6 12 17 25 31 39
19 8 25 61 12 5 18 13 17 30 29 10 11 8 33 51 16 29 34 15 75 35 27 5 12 8 8 4 10 15 19 23 16 9 2 6 13 6 13 12 18 32 25 31 23
11 13 35 80 18 14 11 19 9 31 36 13 10 9 18 37 15 31 26 49 64 40 42 18 4 8 8 8 5 11 5 14 11 6 14 10 15 5 8 10 9 21 9 25 24
8 6 16 35 53 17 22 27 12 44 9 12 14 20 29 24 3 36 22 32 60 48 50 41 7 14 27 27 21 13 16 12 16 5 11 21 13 14 14 8 12 6 9 17 27
14 8 6 9 21 31 30 23 17 21 11 17 8 33 29 15 18 17 10 17 18 49 27 14 19 8 7 6 14 10 15 21 30 46 24 69 36 28 18 17 12 7 11 20 29
12 7 7 5 20 48 36 26 41 21 27 34 29 45 35 24 35 12 16 9 15 9 13 7 7 7 10 10 9 11 17 27 36 53 39 35 21 10 26 13 16 21 23 26 31
23 10 5 15 14 29 28 30 35 35 5 36 27 18 18 14 27 41 48 44 33 22 8 15 12 8 10 2 11 5 34 37 37 42 48 27 33 9 11 14 28 31 35 38 37
Wind_Direction_500mb
251 252 247 241 248 257 233 232 228 231 236 221 209 198 189 192 195 206 209 203 209 201 191 182 194 187 176 158 147 144 73 162 229 157 227 160 149 161 175 153 168 186 171 187 169
246 250 249 234 242 246 234 228 223 221 229 210 199 196 195 190 199 213 209 210 208 211 211 190 188 163 168 141 148 111 124 203 203 195 205 184 174 161 156 161 199 185 188 173 177
245 250 256 239 226 237 246 227 220 214 222 206 199 203 195 196 199 219 207 211 214 213 211 206 175 161 235 140 160 146 171 198 303 260 254 188 188 171 149 223 204 195 187 176 180
247 246 256 243 231 228 240 225 221 212 217 204 209 209 196 202 195 184 211 206 206 200 194 192 162 213 207 181 179 128 204 194 89 335 222 193 182 188 182 202 216 214 206 182 188
247 241 250 248 239 233 234 225 219 208 215 205 214 215 205 195 200 160 181 198 200 192 190 182 182 196 166 176 167 182 200 158 272 322 239 208 197 198 203 210 208 203 197 196 195
245 242 243 243 233 228 235 223 214 206 212 206 208 196 213 217 229 204 183 183 196 192 189 187 190 191 183 141 202 192 195 151 206 138 139 166 123 173 215 217 192 195 195 199 200
247 253 250 250 240 228 240 212 209 206 204 204 207 206 213 207 226 219 201 182 194 192 185 193 190 176 163 131 217 172 61 355 204 178 128 127 55 234 218 201 190 196 198 199 202
239 245 246 245 246 227 230 201 204 204 202 204 207 192 182 209 211 172 184 194 200 190 192 185 169 189 165 151 114 113 97 135 307 164 135 142 247 258 208 202 198 199 200 202 207
240 237 243 237 245 226 230 216 201 199 206 198 177 167 204 210 203 190 159 196 191 186 186 186 189 165 145 122 84 25 168 171 291 148 151 157 238 267 200 201 206 204 207 210 214
230 230 242 237 241 217 232 223 190 193 178 159 162 124 181 198 181 178 187 199 190 166 151 170 151 115 61 141 190 145 142 210 185 204 150 180 243 243 203 206 218 213 213 217 220
232 230 242 238 230 232 217 220 172 155 161 168 182 152 168 180 159 168 191 193 185 160 142 167 133 190 180 179 160 147 148 152 222 12 137 210 236 237 204 215 229 228 221 222 227
228 224 236 232 227 230 214 226 181 169 146 181 189 145 151 161 149 161 180 171 162 136 116 91 206 182 158 146 132 139 155 182 81 85 142 172 262 260 197 235 228 228 226 229 231
231 229 234 236 224 229 236 225 180 167 125 168 181 163 158 168 157 158 168 166 135 129 179 165 196 144 144 149 144 160 158 174 185 112 99 25 278 258 238 229 239 239 238 240 242
235 227 226 225 236 235 243 229 178 172 133 155 172 196 168 163 120 161 166 160 161 169 145 169 132 149 142 163 128 158 192 147 136 124 216 144 274 259 230 235 207 232 233 236 237
235 231 223 209 210 226 225 204 172 167 207 150 162 160 162 167 143 157 157 143 151 158 159 197 141 127 138 172 159 198 155 147 124 119 49 188 290 258 165 239 236 233 230 235 238
234 224 224 216 221 225 205 174 160 175 189 167 156 144 146 152 145 137 150 116 133 106 64 126 110 148 179 109 152 145 77 47 52 74 252 198 189 212 205 192 229 232 235 233 237
232 222 222 216 221 225 223 169 173 200 128 156 156 160 162 152 132 158 162 166 162 135 159 71 135 202 145 91 57 106 112 17 297 259 232 247 196 258 291 253 221 218 227 234 240
232 230 225 221 220 224 217 181 197 126 164 149 151 141 163 149 162 164 152 159 234 110 125 168 199 166 186 164 160 169 161 158 190 201 230 68 231 244 231 261 248 249 248 239 243
234 245 249 226 216 215 202 201 174 158 159 145 148 150 127 141 136 155 187 184 174 177 152 152 212 118 142 145 154 198 196 152 102 31 52 223 295 301 277 270 250 244 236 235 224
237 256 256 232 213 200 220 210 205 155 117 132 140 158 161 169 146 173 184 202 198 182 147 188 130 205 170 135 106 177 148 162 31 156 245 272 277 236 287 254 246 245 230 239 236
229 254 263 203 191 179 239 204 173 167 139 152 148 161 156 169 156 178 183 209 200 187 64 156 105 182 145 210 154 137 166 90 139 163 185 273 259 220 239 347 329 283 271 249 239
209 231 245 185 152 179 201 203 134 160 145 118 103 77 166 170 147 176 188 177 193 175 197 194 109 144 190 185 186 185 181 191 197 199 210 133 262 213 247 262 275 265 290 223 216
212 229 213 182 183 211 195 209 133 158 171 136 128 173 162 164 137 193 188 207 179 175 184 180 149 100 26 358 173 222 139 181 97 87 197 156 251 245 279 306 291 264 234 211 203
190 217 222 202 165 188 181 194 127 169 128 91 107 118 130 163 77 191 178 168 185 187 181 159 120 192 197 208 133 168 178 168 149 175 202 244 260 287 297 308 329 340 209 191 194
214 239 243 156 184 189 182 173 142 149 151 131 103 166 159 154 174 177 150 145 173 186 180 159 190 180 18 125 160 149 172 181 193 222 189 244 232 220 218 227 240 258 224 191 192
202 215 244 79 170 180 182 185 176 153 157 190 172 171 171 167 184 122 119 124 156 81 155 10 174 100 356 356 159 161 183 187 210 224 231 242 256 185 220 222 218 225 219 215 203
208 218 240 155 153 181 181 169 200 163 264 181 142 148 173 166 137 153 157 160 148 155 134 139 131 117 243 8 90 6 202 198 217 226 220 225 243 193 201 214 241 242 230 228 221
Wind_Speed_850mb
49 51 53 67 80 60 63 54 56 55 60 60 65 68 76 69 56 59 58 52 53 50 31 23 19 18 18 12 12 10 9 6 7 10 6 22 11 19 15 27 16 25 12 16 53
51 52 51 61 76 60 65 54 52 61 50 63 58 75 63 57 52 62 74 57 43 34 46 32 22 21 12 11 8 8 8 18 10 9 8 22 18 33 14 23 10 26 20 25 59
55 51 44 60 86 76 62 57 50 62 54 66 67 51 69 58 38 54 63 53 41 52 42 47 34 15 5 12 8 8 9 10 4 8 9 22 14 26 24 6 28 46 35 44 65
45 48 46 50 66 70 69 61 52 63 53 57 57 65 45 59 20 22 55 53 49 45 40 24 26 29 8 8 11 9 11 6 1 7 6 17 28 17 34 16 38 36 43 52 67
36 44 48 45 49 66 76 60 57 59 62 61 50 59 65 44 32 15 48 52 46 55 55 52 59 17 12 8 11 5 6 7 4 8 15 19 20 14 44 17 18 37 49 53 63
44 39 51 52 49 58 56 64 62 66 65 69 65 63 56 25 37 34 43 57 56 62 59 58 40 45 15 8 10 12 9 3 1 7 8 8 2 10 32 25 23 39 52 57 62
52 49 47 47 48 53 68 68 65 68 67 68 58 65 62 47 20 36 34 56 66 66 61 58 27 36 22 8 16 6 5 8 6 7 7 8 1 13 13 25 33 43 50 59 63
55 52 53 46 42 60 71 65 68 69 68 59 53 62 14 39 27 30 24 53 51 64 46 50 28 31 10 17 11 9 6 3 3 7 5 15 16 3 16 32 36 46 51 57 62
50 53 47 53 43 59 60 43 67 70 63 61 59 34 18 21 35 39 18 47 47 54 47 40 30 15 13 12 6 8 8 8 5 7 6 6 13 2 23 34 38 47 49 55 58
46 51 48 50 41 47 55 37 62 63 68 61 44 19 23 37 56 37 39 34 45 48 36 31 14 8 6 7 13 9 8 6 12 10 5 9 16 7 17 30 40 48 54 58 62
41 48 47 45 46 54 54 42 79 28 96 36 56 10 43 33 51 49 40 59 45 36 12 13 10 22 16 14 11 13 11 9 4 5 5 12 17 18 7 25 34 44 55 60 64
41 48 41 47 50 59 54 31 86 32 27 45 63 17 51 66 37 53 48 31 15 10 12 8 18 11 14 10 10 9 10 7 2 3 6 3 21 17 17 17 49 59 56 66 64
43 45 43 37 52 61 43 63 88 64 16 10 64 26 66 61 40 58 68 20 9 12 10 16 12 18 16 10 14 7 14 9 7 4 3 3 13 13 13 33 38 50 59 57 62
36 41 44 41 34 56 53 52 89 67 6 18 23 20 44 46 10 51 59 46 9 13 12 11 6 19 10 11 10 10 8 10 11 9 8 3 12 13 12 19 19 54 53 67 67
38 36 46 45 32 43 57 63 84 48 13 28 19 40 47 51 57 23 30 18 17 15 13 13 15 13 8 14 12 11 13 14 7 7 2 1 6 14 7 15 16 42 67 69 72
40 34 42 46 51 51 64 66 66 17 13 16 17 18 30 13 20 30 28 15 14 9 8 6 5 14 18 6 13 16 14 14 10 6 11 15 12 13 14 15 12 32 68 75 76
33 35 45 49 75 71 51 66 12 25 14 14 12 27 53 18 14 43 33 18 15 18 13 6 4 1 9 14 6 9 14 3 1 2 13 1 8 31 12 14 18 33 63 66 73
31 35 49 67 68 60 61 17 19 18 18 13 25 39 23 34 20 27 30 16 11 10 12 22 13 16 6 14 15 11 16 11 13 8 7 3 15 12 15 31 44 45 39 35 34
34 39 51 63 68 63 32 23 17 36 19 30 39 31 13 14 20 22 31 40 17 21 17 16 12 5 3 7 19 12 13 13 12 5 7 11 13 20 16 20 33 55 49 45 35
33 34 56 47 62 62 18 25 8 25 20 44 18 16 24 31 31 38 42 35 24 28 4 15 11 3 9 11 3 14 19 7 4 5 8 8 9 11 7 23 21 19 49 51 47
31 15 24 59 72 33 10 20 10 22 49 26 19 18 21 32 23 40 57 14 45 36 11 13 10 6 11 13 15 7 8 5 9 10 9 2 11 16 24 6 12 17 25 31 39
19 8 25 61 12 5 18 13 17 30 29 10 11 8 33 51 16 29 34 15 75 35 27 5 12 8 8 4 10 15 19 23 16 9 2 6 13 6 13 12 18 32 25 31 23
11 13 35 80 18 14 11 19 9 31 36 13 10 9 18 37 15 31 26 49 64 40 42 18 4 8 8 8 5 11 5 14 11 6 14 10 15 5 8 10 9 21 9 25 24
8 6 16 35 53 17 22 27 12 44 9 12 14 20 29 24 3 36 22 32 60 48 50 41 7 14 27 27 21 13 16 12 16 5 11 21 13 14 14 8 12 6 9 17 27
14 8 6 9 21 31 30 23 17 21 11 17 8 33 29 15 18 17 10 17 18 49 27 14 19 8 7 6 14 10 15 21 30 46 24 69 36 28 18 17 12 7 11 20 29
12 7 7 5 20 48 36 26 41 21 27 34 29 45 35 24 35 12 16 9 15 9 13 7 7 7 10 10 9 11 17 27 36 53 39 35 21 10 26 13 16 21 23 26 31
23 10 5 15 14 29 28 30 35 35 5 36 27 18 18 14 27 41 48 44 33 22 8 15 12 8 10 2 11 5 34 37 37 42 48 27 33 9 11 14 28 31 35 38 37
Wind_Direction_850mb
251 252 247 241 248 257 233 232 228 231 236 221 209 198 189 192 195 206 209 203 209 201 191 182 194 187 176 158 147 144 73 162 229 157 227 160 149 161 175 153 168 186 171 187 169
246 250 249 234 242 246 234 228 223 221 229 210 199 196 195 190 199 213 209 210 208 211 211 190 188 163 168 141 148 111 124 203 203 195 205 184 174 161 156 161 199 185 188 173 177
245 250 256 239 226 237 246 227 220 214 222 206 199 203 195 196 199 219 207 211 214 213 211 206 175 161 235 140 160 146 171 198 303 260 254 188 188 171 149 223 204 195 187 176 180
247 246 256 243 231 228 240 225 221 212 217 204 209 209 196 202 195 184 211 206 206 200 194 192 162 213 207 181 179 128 204 194 89 335 222 193 182 188 182 202 216 214 206 182 188
247 241 250 248 239 233 234 225 219 208 215 205 214 215 205 195 200 160 181 198 200 192 190 182 182 196 166 176 167 182 200 158 272 322 239 208 197 198 203 210 208 203 197 196 195
245 242 243 243 233 228 235 223 214 206 212 206 208 196 213 217 229 204 183 183 196 192 189 187 190 191 183 141 202 192 195 151 206 138 139 166 123 173 215 217 192 195 195 199 200
247 253 250 250 240 228 240 212 209 206 204 204 207 206 213 207 226 219 201 182 194 192 185 193 190 176 163 131 217 172 61 355 204 178 128 127 55 234 218 201 190 196 198 199 202
239 245 246 245 246 227 230 201 204 204 202 204 207 192 182 209 211 172 184 194 200 190 192 185 169 189 165 151 114 113 97 135 307 164 135 142 247 258 208 202 198 199 200 202 207
240 237 243 237 245 226 230 216 201 199 206 198 177 167 204 210 203 190 159 196 191 186 186 186 189 165 145 122 84 25 168 171 291 148 151 157 238 267 200 201 206 204 207 210 214
230 230 242 237 241 217 232 223 190 193 178 159 162 124 181 198 181 178 187 199 190 166 151 170 151 115 61 141 190 145 142 210 185 204 150 180 243 243 203 206 218 213 213 217 220
232 230 242 238 230 232 217 220 172 155 161 168 182 152 168 180 159 168 191 193 185 160 142 167 133 190 180 179 160 147 148 152 222 12 137 210 236 237 204 215 229 228 221 222 227
228 224 236 232 227 230 214 226 181 169 146 181 189 145 151 161 149 161 180 171 162 136 116 91 206 182 158 146 132 139 155 182 81 85 142 172 262 260 197 235 228 228 226 229 231
231 229 234 236 224 229 236 225 180 167 125 168 181 163 158 168 157 158 168 166 135 129 179 165 196 144 144 149 144 160 158 174 185 112 99 25 278 258 238 229 239 239 238 240 242
235 227 226 225 236 235 243 229 178 172 133 155 172 196 168 163 120 161 166 160 161 169 145 169 132 149 142 163 128 158 192 147 136 124 216 144 274 259 230 235 207 232 233 236 237
235 231 223 209 210 226 225 204 172 167 207 150 162 160 162 167 143 157 157 143 151 158 159 197 141 127 138 172 159 198 155 147 124 119 49 188 290 258 165 239 236 233 230 235 238
234 224 224 216 221 225 205 174 160 175 189 167 156 144 146 152 145 137 150 116 133 106 64 126 110 148 179 109 152 145 77 47 52 74 252 198 189 212 205 192 229 232 235 233 237
232 222 222 216 221 225 223 169 173 200 128 156 156 160 162 152 132 158 162 166 162 135 159 71 135 202 145 91 57 106 112 17 297 259 232 247 196 258 291 253 221 218 227 234 240
232 230 225 221 220 224 217 181 197 126 164 149 151 141 163 149 162 164 152 159 234 110 125 168 199 166 186 164 160 169 161 158 190 201 230 68 231 244 231 261 248 249 248 239 243
234 245 249 226 216 215 202 201 174 158 159 145 148 150 127 141 136 155 187 184 174 177 152 152 212 118 142 145 154 198 196 152 102 31 52 223 295 301 277 270 250 244 236 235 224
237 256 256 232 213 200 220 210 205 155 117 132 140 158 161 169 146 173 184 202 198 182 147 188 130 205 170 135 106 177 148 162 31 156 245 272 277 236 287 254 246 245 230 239 236
229 254 263 203 191 179 239 204 173 167 139 152 148 161 156 169 156 178 183 209 200 187 64 156 105 182 145 210 154 137 166 90 139 163 185 273 259 220 239 347 329 283 271 249 239
209 231 245 185 152 179 201 203 134 160 145 118 103 77 166 170 147 176 188 177 193 175 197 194 109 144 190 185 186 185 181 191 197 199 210 133 262 213 247 262 275 265 290 223 216
212 229 213 182 183 211 195 209 133 158 171 136 128 173 162 164 137 193 188 207 179 175 184 180 149 100 26 358 173 222 139 181 97 87 197 156 251 245 279 306 291 264 234 211 203
190 217 222 202 165 188 181 194 127 169 128 91 107 118 130 163 77 191 178 168 185 187 181 159 120 192 197 208 133 168 178 168 149 175 202 244 260 287 297 308 329 340 209 191 194
214 239 243 156 184 189 182 173 142 149 151 131 103 166 159 154 174 177 150 145 173 186 180 159 190 180 18 125 160 149 172 181 193 222 189 244 232 220 218 227 240 258 224 191 192
202 215 244 79 170 180 182 185 176 153 157 190 172 171 171 167 184 122 119 124 156 81 155 10 174 100 356 356 159 161 183 187 210 224 231 242 256 185 220 222 218 225 219 215 203
208 218 240 155 153 181 181 169 200 163 264 181 142 148 173 166 137 153 157 160 148 155 134 139 131 117 243 8 90 6 202 198 217 226 220 225 243 193 201 214 241 242 230 228 221